QPF
0.00 0.00 0.00 0.00 0.00 0.00 0.00 0.00 0.01 0.01 0.02 0.03 0.02 0.02 0.03 0.03 0.04 0.03 0.03 0.02 0.03 0.06 0.09 0.10 0.08 0.07 0.06 0.08 0.08 0.08 0.07 0.06 0.06 0.09 0.17 0.14 0.08 0.06 0.07 0.06 0.08 0.10 0.09
0.00 0.00 0.00 0.00 0.00 0.00 0.00 0.00 0.00 0.00 0.01 0.02 0.03 0.02 0.02 0.03 0.03 0.03 0.03 0.03 0.03 0.05 0.07 0.09 0.08 0.07 0.06 0.09 0.09 0.08 0.07 0.07 0.06 0.07 0.11 0.09 0.05 0.05 0.06 0.06 0.06 0.08 0.08
0.00 0.00 0.00 0.00 0.00 0.00 0.00 0.00 0.00 0.00 0.01 0.02 0.02 0.02 0.03 0.03 0.02 0.02 0.02 0.03 0.06 0.06 0.06 0.08 0.08 0.08 0.07 0.11 0.12 0.10 0.08 0.08 0.07 0.06 0.06 0.05 0.05 0.05 0.05 0.07 0.07 0.07 0.07
0.00 0.00 0.00 0.00 0.00 0.00 0.00 0.01 0.01 0.01 0.01 0.02 0.02 0.02 0.04 0.04 0.02 0.02 0.02 0.03 0.06 0.07 0.06 0.06 0.09 0.08 0.08 0.09 0.14 0.14 0.10 0.09 0.07 0.07 0.07 0.06 0.05 0.05 0.06 0.08 0.08 0.07 0.05
0.00 0.00 0.00 0.00 0.00 0.01 0.01 0.01 0.01 0.01 0.02 0.03 0.03 0.03 0.04 0.04 0.04 0.04 0.04 0.04 0.05 0.08 0.08 0.05 0.06 0.07 0.07 0.09 0.12 0.15 0.14 0.13 0.10 0.08 0.08 0.06 0.05 0.05 0.05 0.07 0.09 0.07 0.06
0.00 0.00 0.00 0.00 0.00 0.00 0.00 0.01 0.01 0.01 0.02 0.03 0.03 0.03 0.03 0.03 0.04 0.05 0.04 0.05 0.06 0.08 0.09 0.08 0.11 0.08 0.04 0.06 0.08 0.11 0.14 0.15 0.12 0.09 0.09 0.08 0.05 0.04 0.05 0.06 0.07 0.07 0.07
0.00 0.00 0.00 0.00 0.00 0.01 0.01 0.01 0.02 0.01 0.02 0.02 0.03 0.04 0.03 0.03 0.03 0.04 0.06 0.08 0.08 0.08 0.10 0.10 0.14 0.11 0.06 0.04 0.05 0.07 0.12 0.15 0.14 0.11 0.11 0.10 0.06 0.06 0.05 0.05 0.06 0.07 0.08
0.00 0.00 0.00 0.00 0.00 0.01 0.02 0.01 0.02 0.02 0.02 0.02 0.03 0.05 0.05 0.04 0.04 0.04 0.06 0.08 0.08 0.09 0.08 0.07 0.10 0.12 0.08 0.07 0.05 0.04 0.07 0.12 0.14 0.13 0.12 0.11 0.07 0.05 0.06 0.05 0.05 0.07 0.08
0.00 0.00 0.00 0.00 0.00 0.01 0.02 0.03 0.02 0.04 0.04 0.03 0.03 0.04 0.05 0.05 0.04 0.04 0.05 0.06 0.07 0.08 0.07 0.06 0.06 0.08 0.09 0.10 0.08 0.04 0.03 0.06 0.12 0.15 0.13 0.10 0.07 0.05 0.05 0.06 0.05 0.05 0.07
0.00 0.00 0.00 0.00 0.00 0.01 0.02 0.03 0.03 0.03 0.03 0.03 0.02 0.02 0.04 0.04 0.04 0.04 0.04 0.05 0.06 0.06 0.06 0.07 0.06 0.06 0.07 0.10 0.10 0.06 0.03 0.03 0.08 0.16 0.17 0.13 0.11 0.08 0.06 0.07 0.07 0.06 0.06
0.00 0.00 0.00 0.01 0.01 0.01 0.01 0.02 0.02 0.02 0.02 0.03 0.03 0.03 0.03 0.04 0.04 0.05 0.04 0.04 0.05 0.06 0.05 0.06 0.06 0.07 0.08 0.09 0.11 0.08 0.05 0.04 0.05 0.11 0.20 0.17 0.14 0.12 0.09 0.08 0.09 0.09 0.06
0.00 0.00 0.00 0.01 0.01 0.01 0.01 0.02 0.02 0.02 0.02 0.03 0.04 0.03 0.04 0.05 0.05 0.04 0.05 0.03 0.04 0.05 0.04 0.04 0.04 0.05 0.07 0.08 0.07 0.05 0.05 0.06 0.06 0.07 0.13 0.17 0.16 0.18 0.15 0.12 0.09 0.10 0.11
0.01 0.01 0.01 0.01 0.01 0.01 0.01 0.02 0.02 0.02 0.03 0.03 0.03 0.03 0.03 0.02 0.03 0.03 0.04 0.03 0.04 0.06 0.05 0.03 0.03 0.04 0.06 0.09 0.07 0.05 0.06 0.08 0.08 0.07 0.08 0.10 0.12 0.15 0.19 0.18 0.13 0.10 0.10
0.00 0.00 0.01 0.01 0.01 0.01 0.01 0.02 0.03 0.02 0.02 0.03 0.02 0.02 0.03 0.02 0.02 0.03 0.03 0.03 0.03 0.05 0.06 0.04 0.03 0.04 0.06 0.08 0.07 0.05 0.06 0.07 0.09 0.08 0.06 0.06 0.06 0.07 0.10 0.12 0.09 0.08 0.09
0.00 0.00 0.00 0.01 0.01 0.01 0.01 0.01 0.02 0.02 0.02 0.03 0.03 0.03 0.04 0.04 0.02 0.03 0.03 0.04 0.05 0.04 0.04 0.04 0.03 0.03 0.03 0.06 0.06 0.05 0.07 0.07 0.08 0.08 0.07 0.05 0.04 0.04 0.06 0.08 0.05 0.05 0.06
0.00 0.00 0.00 0.00 0.01 0.02 0.01 0.01 0.01 0.02 0.02 0.03 0.03 0.03 0.03 0.04 0.03 0.03 0.03 0.04 0.04 0.05 0.04 0.03 0.02 0.02 0.02 0.03 0.05 0.06 0.07 0.07 0.07 0.08 0.07 0.06 0.05 0.04 0.05 0.05 0.04 0.03 0.03
0.00 0.00 0.00 0.00 0.01 0.01 0.01 0.01 0.01 0.02 0.04 0.05 0.04 0.03 0.02 0.03 0.04 0.04 0.03 0.04 0.04 0.04 0.05 0.05 0.03 0.02 0.03 0.03 0.03 0.04 0.06 0.06 0.07 0.07 0.07 0.07 0.06 0.06 0.05 0.06 0.06 0.04 0.03
0.00 0.00 0.00 0.00 0.00 0.00 0.01 0.01 0.01 0.02 0.04 0.05 0.04 0.04 0.03 0.03 0.04 0.03 0.03 0.04 0.04 0.04 0.05 0.05 0.04 0.03 0.03 0.04 0.04 0.03 0.04 0.05 0.05 0.05 0.07 0.08 0.08 0.07 0.05 0.04 0.05 0.03 0.03
0.00 0.00 0.00 0.00 0.00 0.00 0.00 0.01 0.01 0.01 0.02 0.02 0.03 0.04 0.04 0.04 0.05 0.05 0.03 0.03 0.03 0.03 0.04 0.04 0.05 0.04 0.03 0.04 0.05 0.05 0.04 0.06 0.05 0.05 0.05 0.07 0.07 0.07 0.06 0.05 0.04 0.04 0.03
0.00 0.00 0.00 0.00 0.00 0.00 0.00 0.00 0.00 0.00 0.01 0.02 0.02 0.02 0.02 0.02 0.04 0.05 0.03 0.02 0.02 0.03 0.03 0.04 0.05 0.05 0.04 0.04 0.07 0.07 0.05 0.05 0.05 0.04 0.05 0.06 0.06 0.06 0.05 0.04 0.04 0.04 0.04
0.00 0.00 0.00 0.00 0.00 0.00 0.00 0.00 0.00 0.00 0.01 0.01 0.01 0.01 0.01 0.02 0.02 0.03 0.03 0.02 0.02 0.02 0.02 0.03 0.05 0.05 0.05 0.04 0.07 0.08 0.06 0.05 0.04 0.04 0.05 0.05 0.05 0.05 0.04 0.04 0.04 0.04 0.04
0.00 0.00 0.00 0.00 0.00 0.00 0.00 0.00 0.00 0.00 0.00 0.00 0.01 0.01 0.01 0.02 0.01 0.02 0.02 0.02 0.02 0.02 0.02 0.02 0.04 0.05 0.05 0.05 0.06 0.06 0.06 0.06 0.05 0.03 0.03 0.04 0.05 0.06 0.05 0.04 0.04 0.03 0.04
0.00 0.00 0.00 0.00 0.00 0.00 0.00 0.00 0.00 0.00 0.00 0.00 0.00 0.01 0.01 0.01 0.02 0.02 0.02 0.02 0.02 0.02 0.02 0.02 0.03 0.04 0.04 0.04 0.04 0.05 0.05 0.05 0.04 0.02 0.02 0.03 0.04 0.04 0.03 0.03 0.03 0.03 0.03
0.00 0.00 0.00 0.00 0.00 0.00 0.00 0.00 0.00 0.00 0.00 0.00 0.00 0.01 0.01 0.01 0.01 0.02 0.02 0.02 0.02 0.01 0.01 0.01 0.01 0.02 0.03 0.03 0.03 0.03 0.03 0.03 0.03 0.02 0.02 0.03 0.02 0.03 0.03 0.03 0.02 0.03 0.03
0.00 0.00 0.00 0.00 0.00 0.00 0.00 0.00 0.00 0.00 0.00 0.00 0.00 0.00 0.01 0.02 0.02 0.01 0.02 0.01 0.01 0.01 0.00 0.00 0.01 0.01 0.01 0.02 0.02 0.02 0.03 0.03 0.02 0.02 0.01 0.02 0.02 0.03 0.03 0.04 0.04 0.04 0.03
0.00 0.00 0.00 0.00 0.00 0.00 0.00 0.00 0.00 0.00 0.00 0.00 0.00 0.00 0.00 0.01 0.01 0.01 0.01 0.01 0.01 0.01 0.01 0.01 0.01 0.01 0.01 0.01 0.01 0.02 0.02 0.03 0.03 0.02 0.02 0.02 0.02 0.03 0.03 0.03 0.03 0.04 0.04
MSLP
1013.62 1013.51 1013.37 1013.19 1012.97 1012.71 1012.41 1012.11 1011.81 1011.55 1011.35 1011.21 1011.15 1011.13 1011.17 1011.22 1011.28 1011.33 1011.36 1011.38 1011.41 1011.47 1011.56 1011.72 1011.93 1012.19 1012.46 1012.73 1012.96 1013.12 1013.22 1013.25 1013.24 1013.22 1013.23 1013.30 1013.45 1013.68 1013.99 1014.36 1014.74 1015.12 1015.48
1013.68 1013.53 1013.35 1013.15 1012.91 1012.63 1012.34 1012.04 1011.76 1011.51 1011.31 1011.19 1011.13 1011.13 1011.18 1011.25 1011.32 1011.38 1011.40 1011.40 1011.40 1011.41 1011.46 1011.57 1011.77 1012.05 1012.39 1012.76 1013.12 1013.45 1013.72 1013.91 1014.02 1014.08 1014.11 1014.16 1014.24 1014.38 1014.58 1014.83 1015.13 1015.44 1015.76
1013.78 1013.59 1013.38 1013.15 1012.90 1012.62 1012.34 1012.05 1011.78 1011.54 1011.36 1011.23 1011.18 1011.19 1011.24 1011.32 1011.39 1011.44 1011.45 1011.42 1011.37 1011.33 1011.33 1011.39 1011.56 1011.83 1012.19 1012.62 1013.08 1013.53 1013.92 1014.23 1014.46 1014.60 1014.68 1014.73 1014.79 1014.88 1015.02 1015.22 1015.46 1015.74 1016.03
1013.91 1013.68 1013.45 1013.20 1012.95 1012.68 1012.41 1012.13 1011.87 1011.64 1011.46 1011.34 1011.28 1011.28 1011.33 1011.40 1011.46 1011.50 1011.49 1011.43 1011.34 1011.25 1011.19 1011.20 1011.32 1011.55 1011.91 1012.35 1012.86 1013.38 1013.86 1014.27 1014.59 1014.81 1014.95 1015.05 1015.13 1015.22 1015.35 1015.53 1015.75 1016.01 1016.29
1014.05 1013.81 1013.56 1013.31 1013.05 1012.79 1012.53 1012.27 1012.01 1011.78 1011.60 1011.47 1011.39 1011.38 1011.42 1011.47 1011.53 1011.55 1011.53 1011.45 1011.32 1011.19 1011.08 1011.03 1011.09 1011.27 1011.59 1012.02 1012.53 1013.08 1013.62 1014.10 1014.49 1014.79 1015.01 1015.17 1015.30 1015.43 1015.58 1015.77 1016.00 1016.27 1016.54
1014.19 1013.94 1013.69 1013.44 1013.20 1012.95 1012.69 1012.43 1012.18 1011.95 1011.75 1011.60 1011.51 1011.48 1011.50 1011.55 1011.59 1011.61 1011.58 1011.49 1011.35 1011.18 1011.03 1010.92 1010.92 1011.05 1011.31 1011.70 1012.18 1012.73 1013.28 1013.81 1014.26 1014.64 1014.93 1015.17 1015.36 1015.55 1015.74 1015.96 1016.21 1016.47 1016.74
1014.32 1014.08 1013.83 1013.59 1013.36 1013.12 1012.87 1012.62 1012.36 1012.11 1011.90 1011.73 1011.62 1011.57 1011.58 1011.63 1011.68 1011.70 1011.68 1011.59 1011.45 1011.26 1011.08 1010.93 1010.87 1010.93 1011.12 1011.45 1011.88 1012.40 1012.94 1013.48 1013.98 1014.41 1014.78 1015.08 1015.34 1015.59 1015.83 1016.07 1016.34 1016.61 1016.88
1014.42 1014.19 1013.96 1013.74 1013.52 1013.30 1013.06 1012.80 1012.54 1012.28 1012.05 1011.86 1011.73 1011.68 1011.68 1011.73 1011.79 1011.84 1011.84 1011.78 1011.65 1011.47 1011.27 1011.09 1010.97 1010.97 1011.08 1011.33 1011.70 1012.16 1012.67 1013.20 1013.71 1014.17 1014.58 1014.94 1015.26 1015.55 1015.83 1016.10 1016.37 1016.64 1016.91
1014.50 1014.28 1014.07 1013.87 1013.67 1013.46 1013.23 1012.98 1012.71 1012.44 1012.19 1011.99 1011.86 1011.80 1011.81 1011.87 1011.96 1012.04 1012.08 1012.05 1011.95 1011.79 1011.59 1011.39 1011.23 1011.16 1011.20 1011.37 1011.65 1012.04 1012.49 1012.99 1013.48 1013.95 1014.39 1014.77 1015.12 1015.44 1015.74 1016.02 1016.29 1016.55 1016.81
1014.54 1014.35 1014.16 1013.98 1013.80 1013.61 1013.39 1013.14 1012.87 1012.59 1012.34 1012.13 1011.99 1011.94 1011.96 1012.05 1012.17 1012.30 1012.38 1012.40 1012.34 1012.21 1012.02 1011.81 1011.63 1011.50 1011.47 1011.55 1011.75 1012.04 1012.43 1012.86 1013.31 1013.76 1014.19 1014.58 1014.94 1015.27 1015.56 1015.84 1016.10 1016.35 1016.59
1014.56 1014.39 1014.22 1014.07 1013.91 1013.74 1013.53 1013.29 1013.02 1012.75 1012.49 1012.28 1012.14 1012.09 1012.13 1012.24 1012.39 1012.56 1012.69 1012.76 1012.75 1012.66 1012.49 1012.29 1012.09 1011.92 1011.83 1011.83 1011.94 1012.15 1012.45 1012.80 1013.20 1013.61 1014.01 1014.38 1014.73 1015.04 1015.33 1015.59 1015.83 1016.06 1016.29
1014.55 1014.40 1014.26 1014.13 1014.00 1013.85 1013.66 1013.43 1013.17 1012.89 1012.63 1012.42 1012.28 1012.23 1012.28 1012.41 1012.59 1012.79 1012.97 1013.08 1013.12 1013.07 1012.95 1012.76 1012.56 1012.37 1012.23 1012.17 1012.20 1012.33 1012.54 1012.82 1013.14 1013.49 1013.84 1014.19 1014.51 1014.80 1015.07 1015.31 1015.53 1015.75 1015.96
1014.51 1014.38 1014.27 1014.17 1014.07 1013.94 1013.77 1013.56 1013.31 1013.04 1012.78 1012.56 1012.42 1012.36 1012.41 1012.54 1012.73 1012.95 1013.16 1013.32 1013.41 1013.40 1013.32 1013.17 1012.98 1012.79 1012.63 1012.52 1012.49 1012.55 1012.68 1012.88 1013.13 1013.42 1013.72 1014.02 1014.31 1014.58 1014.83 1015.05 1015.26 1015.45 1015.65
1014.43 1014.33 1014.25 1014.19 1014.12 1014.02 1013.88 1013.68 1013.45 1013.18 1012.92 1012.70 1012.54 1012.47 1012.50 1012.62 1012.81 1013.03 1013.26 1013.45 1013.57 1013.62 1013.58 1013.47 1013.32 1013.14 1012.98 1012.86 1012.79 1012.78 1012.85 1012.99 1013.17 1013.40 1013.65 1013.91 1014.17 1014.42 1014.65 1014.85 1015.05 1015.22 1015.40
1014.30 1014.24 1014.21 1014.18 1014.15 1014.09 1013.98 1013.81 1013.59 1013.34 1013.07 1012.84 1012.66 1012.57 1012.57 1012.66 1012.83 1013.04 1013.27 1013.47 1013.62 1013.71 1013.72 1013.66 1013.55 1013.42 1013.27 1013.15 1013.07 1013.03 1013.06 1013.14 1013.27 1013.44 1013.65 1013.87 1014.10 1014.32 1014.54 1014.73 1014.91 1015.07 1015.22
1014.12 1014.11 1014.13 1014.15 1014.17 1014.15 1014.07 1013.94 1013.74 1013.50 1013.24 1012.99 1012.80 1012.68 1012.64 1012.69 1012.83 1013.01 1013.22 1013.42 1013.59 1013.71 1013.77 1013.76 1013.71 1013.62 1013.51 1013.41 1013.33 1013.28 1013.28 1013.32 1013.40 1013.54 1013.70 1013.88 1014.09 1014.29 1014.49 1014.67 1014.84 1014.99 1015.11
1013.89 1013.94 1014.01 1014.09 1014.15 1014.18 1014.15 1014.05 1013.88 1013.67 1013.42 1013.17 1012.97 1012.82 1012.75 1012.76 1012.85 1012.99 1013.17 1013.36 1013.53 1013.67 1013.76 1013.80 1013.80 1013.76 1013.70 1013.63 1013.57 1013.52 1013.50 1013.52 1013.57 1013.66 1013.79 1013.94 1014.11 1014.30 1014.48 1014.65 1014.80 1014.93 1015.03
1013.62 1013.72 1013.84 1013.96 1014.07 1014.15 1014.17 1014.11 1013.99 1013.81 1013.59 1013.36 1013.16 1012.99 1012.90 1012.87 1012.91 1013.02 1013.16 1013.32 1013.48 1013.62 1013.73 1013.81 1013.85 1013.86 1013.84 1013.81 1013.77 1013.74 1013.71 1013.71 1013.74 1013.79 1013.88 1014.00 1014.14 1014.30 1014.46 1014.62 1014.75 1014.86 1014.94
1013.31 1013.44 1013.60 1013.76 1013.92 1014.04 1014.10 1014.10 1014.03 1013.90 1013.72 1013.53 1013.34 1013.18 1013.07 1013.02 1013.03 1013.09 1013.19 1013.32 1013.45 1013.59 1013.70 1013.80 1013.87 1013.91 1013.93 1013.93 1013.92 1013.90 1013.88 1013.87 1013.87 1013.90 1013.95 1014.03 1014.14 1014.27 1014.41 1014.54 1014.66 1014.74 1014.80
1012.96 1013.10 1013.27 1013.46 1013.64 1013.79 1013.90 1013.95 1013.94 1013.86 1013.75 1013.60 1013.46 1013.33 1013.23 1013.18 1013.16 1013.19 1013.26 1013.35 1013.45 1013.56 1013.66 1013.76 1013.84 1013.91 1013.95 1013.98 1013.99 1013.99 1013.97 1013.96 1013.95 1013.95 1013.97 1014.02 1014.10 1014.19 1014.30 1014.41 1014.50 1014.57 1014.60
1012.56 1012.69 1012.85 1013.03 1013.22 1013.39 1013.53 1013.63 1013.67 1013.66 1013.62 1013.54 1013.46 1013.38 1013.31 1013.27 1013.26 1013.28 1013.31 1013.37 1013.44 1013.52 1013.60 1013.68 1013.76 1013.84 1013.90 1013.95 1013.98 1013.99 1013.99 1013.98 1013.96 1013.95 1013.95 1013.96 1014.01 1014.07 1014.15 1014.23 1014.30 1014.35 1014.38
1012.11 1012.20 1012.33 1012.49 1012.66 1012.83 1012.99 1013.11 1013.21 1013.27 1013.29 1013.30 1013.29 1013.27 1013.26 1013.26 1013.27 1013.28 1013.31 1013.35 1013.39 1013.44 1013.49 1013.56 1013.63 1013.70 1013.77 1013.83 1013.88 1013.91 1013.92 1013.92 1013.91 1013.89 1013.88 1013.88 1013.89 1013.93 1013.98 1014.03 1014.09 1014.13 1014.14
1011.64 1011.66 1011.73 1011.84 1011.98 1012.13 1012.28 1012.43 1012.56 1012.67 1012.76 1012.84 1012.91 1012.97 1013.03 1013.08 1013.13 1013.17 1013.21 1013.24 1013.26 1013.29 1013.33 1013.37 1013.43 1013.49 1013.56 1013.64 1013.71 1013.76 1013.80 1013.82 1013.82 1013.81 1013.80 1013.79 1013.79 1013.80 1013.82 1013.86 1013.90 1013.93 1013.94
1011.15 1011.11 1011.11 1011.15 1011.23 1011.34 1011.48 1011.62 1011.77 1011.92 1012.07 1012.21 1012.35 1012.49 1012.62 1012.73 1012.83 1012.92 1012.98 1013.02 1013.05 1013.07 1013.10 1013.13 1013.18 1013.24 1013.31 1013.40 1013.49 1013.57 1013.64 1013.69 1013.72 1013.73 1013.73 1013.72 1013.71 1013.71 1013.72 1013.74 1013.76 1013.79 1013.79
1010.71 1010.58 1010.51 1010.48 1010.50 1010.56 1010.66 1010.78 1010.92 1011.09 1011.27 1011.46 1011.65 1011.85 1012.05 1012.23 1012.39 1012.52 1012.63 1012.70 1012.75 1012.79 1012.81 1012.85 1012.89 1012.95 1013.04 1013.14 1013.25 1013.37 1013.47 1013.56 1013.63 1013.67 1013.69 1013.70 1013.69 1013.68 1013.68 1013.69 1013.70 1013.71 1013.71
1010.33 1010.14 1009.99 1009.90 1009.86 1009.86 1009.91 1009.99 1010.11 1010.27 1010.45 1010.66 1010.88 1011.12 1011.37 1011.60 1011.82 1012.01 1012.17 1012.28 1012.37 1012.43 1012.47 1012.52 1012.57 1012.65 1012.75 1012.87 1013.00 1013.15 1013.29 1013.43 1013.53 1013.61 1013.67 1013.69 1013.70 1013.70 1013.69 1013.68 1013.68 1013.69 1013.69
Thickness
5720 5719 5718 5715 5715 5714 5713 5713 5714 5715 5715 5717 5718 5720 5721 5723 5725 5727 5729 5729 5731 5733 5736 5738 5740 5741 5742 5744 5744 5745 5746 5746 5747 5749 5752 5751 5751 5752 5753 5754 5754 5755 5755
5717 5715 5715 5712 5711 5710 5709 5709 5710 5710 5711 5712 5713 5714 5716 5719 5720 5723 5726 5727 5728 5730 5732 5735 5737 5738 5740 5742 5743 5743 5744 5745 5745 5747 5747 5747 5749 5750 5751 5752 5752 5752 5753
5714 5713 5711 5710 5709 5707 5706 5706 5707 5706 5707 5708 5709 5710 5713 5715 5717 5720 5722 5725 5727 5727 5729 5731 5734 5736 5738 5739 5741 5741 5742 5743 5743 5744 5745 5745 5746 5748 5750 5750 5750 5750 5751
5711 5709 5708 5707 5705 5703 5703 5702 5701 5701 5702 5703 5705 5707 5709 5711 5714 5716 5719 5722 5724 5727 5728 5729 5731 5733 5735 5737 5738 5739 5740 5741 5742 5742 5743 5743 5745 5746 5748 5749 5749 5749 5749
5708 5707 5704 5703 5702 5700 5699 5698 5698 5697 5697 5697 5700 5702 5705 5707 5709 5712 5716 5719 5721 5723 5725 5726 5728 5730 5732 5734 5735 5737 5738 5739 5740 5741 5741 5742 5743 5744 5747 5747 5747 5747 5747
5705 5704 5702 5700 5699 5697 5694 5694 5692 5692 5692 5693 5697 5698 5700 5703 5705 5707 5712 5715 5718 5720 5722 5725 5726 5727 5728 5730 5732 5734 5736 5737 5738 5739 5739 5740 5741 5742 5743 5744 5744 5744 5745
5703 5701 5699 5698 5695 5693 5691 5691 5689 5689 5688 5691 5691 5691 5695 5699 5701 5702 5706 5709 5713 5715 5717 5720 5723 5725 5726 5727 5729 5731 5733 5735 5736 5737 5738 5738 5739 5740 5741 5741 5742 5743 5743
5701 5700 5698 5696 5693 5689 5688 5687 5685 5684 5685 5687 5687 5686 5686 5690 5693 5699 5701 5703 5708 5711 5714 5717 5719 5721 5724 5726 5727 5728 5730 5732 5734 5735 5736 5736 5737 5738 5739 5739 5740 5740 5741
5699 5697 5695 5694 5691 5689 5686 5684 5683 5681 5680 5683 5686 5684 5682 5682 5687 5692 5696 5700 5703 5706 5709 5713 5715 5718 5721 5723 5725 5725 5727 5729 5731 5732 5733 5734 5735 5735 5736 5736 5737 5738 5738
5699 5696 5694 5692 5690 5688 5685 5684 5683 5681 5679 5679 5682 5683 5684 5684 5682 5684 5690 5695 5698 5701 5704 5708 5711 5714 5717 5719 5720 5722 5724 5726 5727 5729 5730 5731 5732 5733 5733 5734 5734 5735 5735
5699 5696 5693 5691 5689 5687 5685 5682 5681 5680 5679 5679 5680 5681 5681 5681 5684 5682 5682 5687 5692 5696 5700 5702 5705 5708 5712 5715 5717 5718 5720 5722 5724 5725 5727 5728 5729 5730 5730 5731 5732 5732 5732
5699 5697 5693 5691 5689 5687 5685 5682 5681 5679 5679 5679 5679 5680 5680 5679 5680 5681 5682 5683 5686 5691 5695 5698 5701 5704 5707 5710 5713 5714 5716 5718 5720 5722 5723 5724 5726 5726 5727 5728 5728 5729 5729
5699 5697 5694 5692 5689 5687 5685 5683 5681 5680 5679 5678 5678 5679 5680 5680 5681 5681 5681 5682 5683 5687 5691 5695 5697 5700 5703 5706 5708 5710 5712 5714 5716 5718 5719 5720 5722 5722 5723 5724 5724 5725 5726
5699 5696 5694 5691 5689 5687 5685 5683 5682 5680 5679 5678 5678 5677 5677 5679 5680 5680 5679 5679 5679 5683 5687 5690 5694 5697 5700 5702 5704 5706 5709 5710 5712 5713 5715 5716 5717 5718 5719 5720 5720 5721 5722
5700 5697 5695 5692 5689 5687 5685 5683 5681 5680 5679 5678 5677 5676 5676 5677 5678 5678 5679 5679 5678 5679 5682 5687 5689 5693 5696 5698 5699 5704 5707 5706 5708 5709 5711 5712 5713 5714 5715 5716 5716 5717 5717
5699 5697 5695 5693 5690 5688 5685 5683 5681 5679 5678 5676 5675 5675 5675 5677 5676 5676 5677 5679 5680 5680 5681 5686 5687 5690 5692 5695 5695 5699 5702 5702 5704 5705 5706 5708 5709 5710 5710 5711 5712 5712 5713
5699 5697 5695 5693 5690 5688 5686 5683 5682 5679 5678 5677 5676 5675 5674 5674 5675 5675 5676 5677 5679 5680 5678 5682 5686 5688 5689 5691 5693 5695 5698 5699 5701 5701 5702 5703 5704 5705 5706 5706 5707 5708 5708
5699 5697 5695 5693 5690 5688 5686 5683 5681 5679 5677 5676 5676 5675 5674 5674 5673 5674 5674 5676 5677 5678 5678 5677 5680 5683 5685 5687 5689 5690 5693 5695 5697 5696 5697 5698 5699 5700 5700 5701 5702 5702 5703
5700 5697 5695 5692 5690 5688 5686 5684 5682 5680 5678 5677 5676 5675 5675 5674 5672 5673 5673 5674 5675 5676 5676 5676 5677 5679 5681 5683 5684 5686 5689 5690 5692 5692 5692 5693 5693 5694 5695 5695 5696 5697 5697
5699 5697 5695 5693 5691 5689 5687 5685 5683 5681 5680 5678 5676 5675 5675 5674 5672 5673 5673 5673 5673 5673 5673 5674 5674 5675 5676 5679 5680 5681 5683 5685 5686 5687 5687 5688 5688 5688 5689 5690 5690 5691 5691
5697 5696 5694 5692 5690 5688 5686 5684 5683 5681 5679 5677 5676 5675 5673 5671 5670 5670 5671 5672 5672 5671 5671 5671 5671 5672 5673 5674 5675 5678 5678 5680 5681 5682 5682 5683 5684 5684 5684 5684 5684 5684 5685
5695 5694 5692 5691 5688 5686 5682 5678 5677 5679 5679 5677 5675 5674 5673 5671 5668 5666 5666 5666 5668 5669 5669 5669 5669 5669 5671 5673 5673 5673 5674 5675 5674 5677 5677 5677 5678 5678 5678 5678 5677 5677 5677
5693 5692 5691 5689 5687 5684 5679 5676 5674 5675 5676 5676 5675 5673 5672 5671 5668 5669 5666 5664 5664 5664 5664 5668 5668 5668 5668 5670 5669 5669 5670 5670 5670 5672 5671 5670 5672 5672 5672 5671 5670 5669 5670
5691 5689 5688 5687 5685 5683 5678 5675 5673 5674 5675 5674 5673 5672 5671 5670 5668 5667 5667 5666 5666 5665 5663 5664 5666 5666 5667 5666 5667 5666 5666 5666 5666 5665 5666 5665 5666 5666 5666 5664 5662 5662 5662
5689 5687 5686 5684 5682 5681 5676 5673 5670 5673 5673 5673 5672 5670 5669 5668 5663 5661 5663 5663 5662 5662 5659 5658 5658 5659 5658 5658 5660 5660 5660 5661 5660 5660 5661 5661 5661 5661 5660 5659 5657 5655 5655
5686 5684 5684 5682 5681 5680 5676 5671 5667 5671 5671 5670 5669 5668 5663 5662 5659 5657 5660 5660 5658 5659 5659 5657 5656 5655 5655 5655 5653 5656 5657 5657 5657 5655 5655 5655 5655 5655 5653 5653 5652 5650 5649